Tracking 20383 objects as of 24-Feb-2020
HD Live streaming from Space Station
objects crossing your sky now
Track the group of recently launched Starlink satellites

IRIDIUM 33 DEB

Track IRIDIUM 33 DEB now!
10-day predictions


NORAD ID: 35618
Int'l Code: 1997-051QQ
Perigee: 729.1 km
Apogee: 774.9 km
Inclination: 86.3 °
Period: 99.7 minutes
Semi major axis: 7123 km
RCS: 0.0121 m2 (small)
Launch date: September 14, 1997
Source: United States (US)
Launch site: TYURATAM MISSILE AND SPACE COMPLEX (TTMTR)

Note: This is SATELLITE DEBRIS
aabbcc
Your satellite tracking list
Your tracking list is empty




NASA's NSSDC Master Catalog

Two Line Element Set (TLE):
1 35618U 97051QQ  20054.65528011  .00000299  00000-0  81045-4 0  9996
2 35618  86.3471 190.7594 0032118 221.7002 138.1750 14.44129921565781
Source of the keplerian elements: AFSPC